Weather History for KD50 - March, 2014

Change the Weather History Date:

Tuesday, March 11, 2014

  Actual Average (KISN) Record (KISN)
Temperature  
Mean Temperature 32 °F 27 °F  
Max Temperature 39 °F 37 °F 71 °F (1990)
Min Temperature 24 °F 16 °F -28 °F (1998)
Degree Days  
Heating Degree Days 34 38  
Month to date heating degree days 446  
Since 1 July heating degree days 7214  
Cooling Degree Days 0 0  
Month to date cooling degree days 0  
Year to date cooling degree days 0  
Moisture  
Dew Point 30 °F    
Average Humidity 95    
Maximum Humidity 100    
Minimum Humidity 75    
Precipitation  
Precipitation 0.00 in 0.02 in 0.58 in (1986)
Month to date precipitation 0.23  
Year to date precipitation 1.21  
Sea Level Pressure  
Sea Level Pressure 30.06 in    
Wind  
Wind Speed 10 mph (NW)    
Max Wind Speed 18 mph    
Max Gust Speed 23 mph    
Visibility 10 miles    
Events      
T = Trace of Precipitation, MM = Missing Value Source: NWS Daily Summary

Daily Weather History Graph

Daily Weather History Graph

Search for Another Location

Airport or City:

Trip Planner

Search our weather history database for the weather conditions in past years. The results will help you decide how hot, cold, wet, or windy it might be!

Date:

Astronomy

Mar. 11, 2014 Rise Set
Actual Time 8:14 AM CDT 7:52 PM CDT
Civil Twilight 7:43 AM CDT 8:23 PM CDT
Nautical Twilight 7:06 AM CDT 9:00 PM CDT
Astronomical Twilight 6:29 AM CDT 9:38 PM CDT
Moon 3:13 PM CDT (3/11) 5:28 AM CDT (3/11)
Length of Visible Light 12h 40m
Length of Day
11h 37m
Waxing Gibbous, 78% of the Moon is Illuminated
Mar 11
Waxing Gibbous
Mar 16
Full
Mar 23
Last Quarter
Mar 30
New
Apr 7
First Quarter

Hourly Weather History & Observations

Time (CDT) Temp. Windchill Dew Point Humidity Pressure Visibility Wind Dir Wind Speed Gust Speed Precip Events Conditions
12:15 AM 30.2 °F 21.9 °F 30.2 °F 100% 29.85 in 10.0 mi NW 9.2 mph - N/A   Unknown
12:35 AM 30.2 °F 21.9 °F 30.2 °F 100% 29.86 in 10.0 mi NW 9.2 mph - N/A   Unknown
12:55 AM 30.2 °F 21.3 °F 30.2 °F 100% 29.86 in 10.0 mi NW 10.4 mph - N/A   Unknown
1:15 AM 30.2 °F 21.9 °F 30.2 °F 100% 29.87 in 10.0 mi NW 9.2 mph - N/A   Unknown
1:35 AM 28.4 °F 19.7 °F 28.4 °F 100% 29.88 in 10.0 mi NW 9.2 mph - N/A   Unknown
1:55 AM 28.4 °F 20.4 °F 28.4 °F 100% 29.89 in 10.0 mi NW 8.1 mph - N/A   Unknown
2:15 AM 28.4 °F 19.7 °F 28.4 °F 100% 29.90 in 10.0 mi NW 9.2 mph - N/A   Unknown
2:35 AM 30.2 °F 21.9 °F 30.2 °F 100% 29.90 in 10.0 mi NW 9.2 mph - N/A   Unknown
2:55 AM 30.2 °F 20.8 °F 30.2 °F 100% 29.91 in 10.0 mi NW 11.5 mph - N/A   Unknown
3:15 AM 28.4 °F 18.5 °F 28.4 °F 100% 29.91 in 10.0 mi NW 11.5 mph - N/A   Unknown
3:35 AM 28.4 °F 18.5 °F 28.4 °F 100% 29.92 in 10.0 mi NW 11.5 mph - N/A   Unknown
3:55 AM 28.4 °F 18.5 °F 28.4 °F 100% 29.93 in 10.0 mi NW 11.5 mph - N/A   Unknown
4:15 AM 28.4 °F 18.0 °F 28.4 °F 100% 29.93 in 10.0 mi NW 12.7 mph - N/A   Unknown
4:35 AM 28.4 °F 18.0 °F 28.4 °F 100% 29.93 in 10.0 mi NW 12.7 mph - N/A   Unknown
4:55 AM 28.4 °F 18.0 °F 28.4 °F 100% 29.93 in 10.0 mi NW 12.7 mph - N/A   Unknown
5:15 AM 26.6 °F 17.5 °F 26.6 °F 100% 29.95 in 10.0 mi NW 9.2 mph - N/A   Unknown
5:35 AM 26.6 °F 19.1 °F 26.6 °F 100% 29.95 in 10.0 mi WNW 6.9 mph - N/A   Unknown
5:55 AM 26.6 °F 18.2 °F 26.6 °F 100% 29.96 in 10.0 mi NW 8.1 mph - N/A   Unknown
6:15 AM 26.6 °F 17.5 °F 26.6 °F 100% 29.97 in 10.0 mi NW 9.2 mph - N/A   Unknown
6:35 AM 26.6 °F 16.8 °F 26.6 °F 100% 29.98 in 10.0 mi NW 10.4 mph - N/A   Unknown
6:55 AM 26.6 °F 16.2 °F 26.6 °F 100% 29.99 in 10.0 mi NW 11.5 mph - N/A   Unknown
7:15 AM 26.6 °F 17.5 °F 26.6 °F 100% 30.01 in 10.0 mi NW 9.2 mph - N/A   Unknown
7:35 AM 26.6 °F 17.5 °F 26.6 °F 100% 30.02 in 10.0 mi NW 9.2 mph - N/A   Unknown
7:55 AM 26.6 °F 16.8 °F 24.8 °F 93% 30.03 in 10.0 mi WNW 10.4 mph - N/A   Unknown
8:15 AM 24.8 °F 14.6 °F 24.8 °F 100% 30.04 in 10.0 mi NW 10.4 mph - N/A   Unknown
8:35 AM 24.8 °F 13.4 °F 24.8 °F 100% 30.05 in 10.0 mi NW 12.7 mph - N/A   Unknown
8:55 AM 26.6 °F 15.2 °F 26.6 °F 100% 30.06 in 10.0 mi NW 13.8 mph 19.6 mph N/A   Unknown
9:15 AM 26.6 °F 13.4 °F 26.6 °F 100% 30.07 in 10.0 mi NW 18.4 mph - N/A   Unknown
9:35 AM 26.6 °F 14.3 °F 26.6 °F 100% 30.09 in 10.0 mi NW 16.1 mph 20.7 mph N/A   Unknown
9:55 AM 26.6 °F 14.7 °F 26.6 °F 100% 30.09 in 10.0 mi NW 15.0 mph - N/A   Unknown
10:15 AM 28.4 °F 17.0 °F 26.6 °F 93% 30.10 in 10.0 mi NW 15.0 mph 20.7 mph N/A   Unknown
10:35 AM 28.4 °F 16.2 °F 28.4 °F 100% 30.11 in 10.0 mi NW 17.3 mph 21.9 mph N/A   Unknown
10:55 AM 30.2 °F 18.5 °F 28.4 °F 93% 30.11 in 10.0 mi NW 17.3 mph 21.9 mph N/A   Unknown
11:15 AM 32.0 °F 22.1 °F 28.4 °F 87% 30.12 in 10.0 mi NW 13.8 mph - N/A   Unknown
11:35 AM 32.0 °F 21.6 °F 30.2 °F 93% 30.13 in 10.0 mi WNW 15.0 mph - N/A   Unknown
11:55 AM 32.0 °F 20.8 °F 30.2 °F 93% 30.15 in 10.0 mi NW 17.3 mph 21.9 mph N/A   Unknown
12:15 PM 30.2 °F 18.5 °F 30.2 °F 100% 30.16 in 10.0 mi NW 17.3 mph 23.0 mph N/A   Unknown
12:35 PM 30.2 °F 18.5 °F 30.2 °F 100% 30.17 in 9.0 mi NW 17.3 mph - N/A   Unknown
12:55 PM 28.4 °F 18.0 °F 28.4 °F 100% 30.17 in 9.0 mi NW 12.7 mph - N/A   Unknown
1:15 PM 32.0 °F 23.0 °F 32.0 °F 100% 30.17 in 10.0 mi NW 11.5 mph - N/A   Unknown
1:35 PM 32.0 °F 23.0 °F 32.0 °F 100% 30.17 in 10.0 mi NNW 11.5 mph - N/A   Unknown
1:55 PM 32.0 °F 23.6 °F 32.0 °F 100% 30.16 in 10.0 mi NW 10.4 mph - N/A   Unknown
2:15 PM 33.8 °F 26.4 °F 32.0 °F 93% 30.16 in 10.0 mi NW 9.2 mph - N/A   Unknown
2:35 PM 33.8 °F 27.7 °F 32.0 °F 93% 30.16 in 10.0 mi NW 6.9 mph - N/A   Unknown
2:55 PM 35.6 °F 30.7 °F 32.0 °F 87% 30.15 in 10.0 mi West 5.8 mph - N/A   Unknown
3:15 PM 35.6 °F 29.9 °F 32.0 °F 87% 30.15 in 10.0 mi WNW 6.9 mph - N/A   Unknown
3:35 PM 35.6 °F 28.6 °F 32.0 °F 87% 30.15 in 10.0 mi NW 9.2 mph - N/A   Unknown
3:55 PM 35.6 °F 29.9 °F 32.0 °F 87% 30.14 in 10.0 mi NW 6.9 mph - N/A   Unknown
4:15 PM 35.6 °F 31.7 °F 32.0 °F 87% 30.14 in 10.0 mi WNW 4.6 mph - N/A   Unknown
4:35 PM 37.4 °F 31.4 °F 32.0 °F 81% 30.14 in 10.0 mi WNW 8.1 mph - N/A   Unknown
4:55 PM 37.4 °F 31.4 °F 32.0 °F 81% 30.13 in 10.0 mi West 8.1 mph - N/A   Unknown
5:15 PM 39.2 °F 33.6 °F 32.0 °F 75% 30.12 in 10.0 mi West 8.1 mph - N/A   Unknown
5:35 PM 39.2 °F 32.5 °F 33.8 °F 81% 30.12 in 10.0 mi WNW 10.4 mph - N/A   Unknown
5:55 PM 39.2 °F 32.5 °F 32.0 °F 75% 30.11 in 10.0 mi WNW 10.4 mph - N/A   Unknown
6:15 PM 39.2 °F 32.0 °F 32.0 °F 75% 30.11 in 10.0 mi WNW 11.5 mph - N/A   Unknown
6:35 PM 37.4 °F 30.8 °F 32.0 °F 81% 30.11 in 10.0 mi WNW 9.2 mph - N/A   Unknown
6:55 PM 37.4 °F 31.4 °F 32.0 °F 81% 30.12 in 10.0 mi WNW 8.1 mph - N/A   Unknown
7:15 PM 33.8 °F 28.6 °F 32.0 °F 93% 30.11 in 10.0 mi WNW 5.8 mph - N/A   Unknown
7:35 PM 32.0 °F 24.8 °F 32.0 °F 100% 30.12 in 10.0 mi WNW 8.1 mph - N/A   Unknown
7:55 PM 32.0 °F 25.6 °F 32.0 °F 100% 30.12 in 10.0 mi WNW 6.9 mph - N/A   Unknown
8:15 PM 32.0 °F 24.8 °F 32.0 °F 100% 30.12 in 10.0 mi WNW 8.1 mph - N/A   Unknown
8:35 PM 32.0 °F 25.6 °F 32.0 °F 100% 30.12 in 10.0 mi West 6.9 mph - N/A   Unknown
8:55 PM 32.0 °F 23.0 °F 32.0 °F 100% 30.13 in 10.0 mi WNW 11.5 mph - N/A   Unknown
9:15 PM 32.0 °F 24.2 °F 32.0 °F 100% 30.12 in 10.0 mi WNW 9.2 mph - N/A   Unknown
9:35 PM 32.0 °F 23.6 °F 32.0 °F 100% 30.12 in 10.0 mi WNW 10.4 mph - N/A   Unknown
9:55 PM 32.0 °F 23.6 °F 32.0 °F 100% 30.13 in 10.0 mi WNW 10.4 mph - N/A   Unknown
10:15 PM 32.0 °F 24.2 °F 30.2 °F 93% 30.13 in 10.0 mi WNW 9.2 mph - N/A   Unknown
10:35 PM 32.0 °F 24.2 °F 30.2 °F 93% 30.13 in 10.0 mi WNW 9.2 mph - N/A   Unknown
10:55 PM 32.0 °F 24.2 °F 30.2 °F 93% 30.13 in 10.0 mi WNW 9.2 mph - N/A   Unknown
11:15 PM 32.0 °F 23.6 °F 30.2 °F 93% 30.12 in 10.0 mi WNW 10.4 mph - N/A   Unknown
11:35 PM 32.0 °F 23.6 °F 30.2 °F 93% 30.12 in 10.0 mi WNW 10.4 mph - N/A   Unknown
11:55 PM 32.0 °F 24.2 °F 30.2 °F 93% 30.12 in 10.0 mi WNW 9.2 mph - N/A   Unknown